SB KEPS @ AMSAT $ORB11349.O Orbital Elements 11349.OSCAR
HR AMSAT ORBITAL ELEMENTS FOR OSCAR SATELLITES FROM WA5QGD FORT WORTH,TX December 15, 2011 Send Subscribe/unsubscribe to KEPS at http://www.amsat.org/mailman/listinfo/keps BID: ORB11349.O TO ALL RADIO AMATEURS BT
Satellite: AO-07 Catalog number: 07530 Epoch time: 11348.51740542 Element set: 254 Inclination: 101.3967 deg RA of node: 347.9610 deg Eccentricity: 0.0011913 Arg of perigee: 287.0127 deg Mean anomaly: 072.9643 deg Mean motion: 12.53586356 rev/day Decay rate: -2.7e-07 rev/day^2 Epoch rev: 69678 Checksum: 309
Satellite: FO-29 Catalog number: 24278 Epoch time: 11348.94025180 Element set: 0732 Inclination: 098.5732 deg RA of node: 108.9610 deg Eccentricity: 0.0351005 Arg of perigee: 148.8913 deg Mean anomaly: 213.3535 deg Mean motion: 13.52973702 rev/day Decay rate: -3.0e-08 rev/day^2 Epoch rev: 75690 Checksum: 303
Satellite: SO-33 Catalog number: 25509 Epoch time: 11348.89035421 Element set: 0122 Inclination: 031.4343 deg RA of node: 302.1769 deg Eccentricity: 0.0352376 Arg of perigee: 022.0362 deg Mean anomaly: 339.5075 deg Mean motion: 14.28613756 rev/day Decay rate: 1.387e-05 rev/day^2 Epoch rev: 68613 Checksum: 295
Satellite: RS-22 Catalog number: 27939 Epoch time: 11349.65698276 Element set: 901 Inclination: 097.8240 deg RA of node: 194.7858 deg Eccentricity: 0.0014387 Arg of perigee: 127.9033 deg Mean anomaly: 232.3456 deg Mean motion: 14.63826513 rev/day Decay rate: 8.93e-06 rev/day^2 Epoch rev: 43888 Checksum: 356
Satellite: VO-52 Catalog number: 28650 Epoch time: 11348.60976187 Element set: 0974 Inclination: 097.6207 deg RA of node: 023.4785 deg Eccentricity: 0.0025555 Arg of perigee: 291.7429 deg Mean anomaly: 068.1063 deg Mean motion: 14.82532048 rev/day Decay rate: 2.393e-05 rev/day^2 Epoch rev: 35747 Checksum: 338
Satellite: SO-67 Catalog number: 35870 Epoch time: 11349.63884499 Element set: 497 Inclination: 097.2584 deg RA of node: 026.8257 deg Eccentricity: 0.0003782 Arg of perigee: 090.9857 deg Mean anomaly: 055.1986 deg Mean motion: 15.22283847 rev/day Decay rate: 6.973e-05 rev/day^2 Epoch rev: 12452 Checksum: 372
Satellite: HO-68 Catalog number: 36122 Epoch time: 11349.59323603 Element set: 15 Inclination: 100.3918 deg RA of node: 047.4591 deg Eccentricity: 0.0007644 Arg of perigee: 168.6691 deg Mean anomaly: 191.4601 deg Mean motion: 13.16291356 rev/day Decay rate: -4.4e-07 rev/day^2 Epoch rev: 9610 Checksum: 288
/EX SB KEPS @ AMSAT $ORB11349.D Orbital Elements 11349.MICROS
HR AMSAT ORBITAL ELEMENTS FOR THE MICROSATS FROM WA5QGD FORT WORTH,TX December 15, 2011 Send Subscribe/unsubscribe to KEPS at http://www.amsat.org/mailman/listinfo/keps BID: ORB11349.D TO ALL RADIO AMATEURS BT
Satellite: UO-11 Catalog number: 14781 Epoch time: 11348.71382307 Element set: 0740 Inclination: 097.9812 deg RA of node: 044.6260 deg Eccentricity: 0.0007932 Arg of perigee: 276.3467 deg Mean anomaly: 083.6836 deg Mean motion: 14.80231380 rev/day Decay rate: 9.74e-06 rev/day^2 Epoch rev: 49249 Checksum: 318
Satellite: AO-16 Catalog number: 20439 Epoch time: 11348.85887182 Element set: 0360 Inclination: 098.4076 deg RA of node: 292.6466 deg Eccentricity: 0.0011124 Arg of perigee: 353.4197 deg Mean anomaly: 006.6834 deg Mean motion: 14.31994910 rev/day Decay rate: 2.87e-06 rev/day^2 Epoch rev: 14347 Checksum: 322
Satellite: LO-19 Catalog number: 20442 Epoch time: 11348.91022646 Element set: 271 Inclination: 098.3729 deg RA of node: 296.3690 deg Eccentricity: 0.0011769 Arg of perigee: 345.2787 deg Mean anomaly: 014.8050 deg Mean motion: 14.32216723 rev/day Decay rate: 2.73e-06 rev/day^2 Epoch rev: 14366 Checksum: 303
Satellite: AO-27 Catalog number: 22825 Epoch time: 11348.82256510 Element set: 983 Inclination: 098.5541 deg RA of node: 289.7364 deg Eccentricity: 0.0009259 Arg of perigee: 103.3820 deg Mean anomaly: 256.8410 deg Mean motion: 14.29410163 rev/day Decay rate: 1.66e-06 rev/day^2 Epoch rev: 94999 Checksum: 327
Satellite: IO-26 Catalog number: 22826 Epoch time: 11348.85861085 Element set: 0742 Inclination: 098.5481 deg RA of node: 290.1921 deg Eccentricity: 0.0009795 Arg of perigee: 096.2856 deg Mean anomaly: 263.9439 deg Mean motion: 14.29679120 rev/day Decay rate: 2.62e-06 rev/day^2 Epoch rev: 95012 Checksum: 338
Satellite: GO-32 Catalog number: 25397 Epoch time: 11348.66175111 Element set: 0654 Inclination: 098.3431 deg RA of node: 331.7215 deg Eccentricity: 0.0002105 Arg of perigee: 094.4702 deg Mean anomaly: 265.6703 deg Mean motion: 14.23245446 rev/day Decay rate: .00000000 rev/day^2 Epoch rev: 69763 Checksum: 273
Satellite: NO-44 Catalog number: 26931 Epoch time: 11348.66799452 Element set: 0921 Inclination: 067.0521 deg RA of node: 238.4580 deg Eccentricity: 0.0004984 Arg of perigee: 275.2117 deg Mean anomaly: 084.8419 deg Mean motion: 14.29736948 rev/day Decay rate: 7.2e-07 rev/day^2 Epoch rev: 53272 Checksum: 333
Satellite: SO-50 Catalog number: 27607 Epoch time: 11348.52685875 Element set: 638 Inclination: 064.5564 deg RA of node: 139.5585 deg Eccentricity: 0.0083906 Arg of perigee: 284.6101 deg Mean anomaly: 074.5651 deg Mean motion: 14.72091435 rev/day Decay rate: 1.307e-05 rev/day^2 Epoch rev: 48263 Checksum: 328
Satellite: CO-55 Catalog number: 27844 Epoch time: 11348.52227127 Element set: 0265 Inclination: 098.7048 deg RA of node: 354.6064 deg Eccentricity: 0.0010372 Arg of perigee: 041.2376 deg Mean anomaly: 318.9563 deg Mean motion: 14.20925556 rev/day Decay rate: 4.91e-06 rev/day^2 Epoch rev: 43852 Checksum: 313
Satellite: CO-57 Catalog number: 27848 Epoch time: 11348.49428983 Element set: 0213 Inclination: 098.7113 deg RA of node: 353.8340 deg Eccentricity: 0.0010443 Arg of perigee: 046.9795 deg Mean anomaly: 313.2267 deg Mean motion: 14.20690416 rev/day Decay rate: 4.21e-06 rev/day^2 Epoch rev: 43846 Checksum: 317
Satellite: AO-51 Catalog number: 28375 Epoch time: 11349.50558537 Element set: 144 Inclination: 098.1209 deg RA of node: 318.6511 deg Eccentricity: 0.0082730 Arg of perigee: 240.7355 deg Mean anomaly: 118.5532 deg Mean motion: 14.40870575 rev/day Decay rate: 5.14e-06 rev/day^2 Epoch rev: 39217 Checksum: 304
Satellite: CP3 Catalog number: 31129 Epoch time: 11349.51922388 Element set: 44 Inclination: 097.8897 deg RA of node: 003.1659 deg Eccentricity: 0.0101356 Arg of perigee: 338.1643 deg Mean anomaly: 021.5228 deg Mean motion: 14.52788694 rev/day Decay rate: 1.354e-05 rev/day^2 Epoch rev: 24716 Checksum: 314
Satellite: CO-65 Catalog number: 32785 Epoch time: 11348.59843517 Element set: 0176 Inclination: 097.8281 deg RA of node: 048.8531 deg Eccentricity: 0.0014000 Arg of perigee: 311.6617 deg Mean anomaly: 048.3420 deg Mean motion: 14.82520756 rev/day Decay rate: 2.211e-05 rev/day^2 Epoch rev: 19626 Checksum: 303
Satellite: PRISM Catalog number: 33493 Epoch time: 11349.77270656 Element set: 239 Inclination: 098.1462 deg RA of node: 121.3919 deg Eccentricity: 0.0019624 Arg of perigee: 172.1988 deg Mean anomaly: 187.9505 deg Mean motion: 14.82852484 rev/day Decay rate: 5.859e-05 rev/day^2 Epoch rev: 15641 Checksum: 341
Satellite: SOHLA-1 Catalog number: 33496 Epoch time: 11348.80996273 Element set: 0604 Inclination: 098.0938 deg RA of node: 096.9723 deg Eccentricity: 0.0005604 Arg of perigee: 271.6163 deg Mean anomaly: 088.4392 deg Mean motion: 14.69808249 rev/day Decay rate: 7.73e-06 rev/day^2 Epoch rev: 15501 Checksum: 335
Satellite: TISAT-1 Catalog number: 36799 Epoch time: 11348.89155135 Element set: 0507 Inclination: 098.0840 deg RA of node: 058.8002 deg Eccentricity: 0.0016049 Arg of perigee: 055.7221 deg Mean anomaly: 304.5474 deg Mean motion: 14.81293594 rev/day Decay rate: 3.509e-05 rev/day^2 Epoch rev: 07705 Checksum: 313
Satellite: STUDSAT Catalog number: 36801 Epoch time: 11349.79017341 Element set: 300 Inclination: 098.0912 deg RA of node: 059.7853 deg Eccentricity: 0.0013672 Arg of perigee: 038.7901 deg Mean anomaly: 321.4273 deg Mean motion: 14.82545619 rev/day Decay rate: 8.962e-05 rev/day^2 Epoch rev: 7718 Checksum: 307
Satellite: OOREOS Catalog number: 37224 Epoch time: 11330.25217324 Element set: 0033 Inclination: 071.9741 deg RA of node: 041.3371 deg Eccentricity: 0.0020052 Arg of perigee: 337.4654 deg Mean anomaly: 022.5620 deg Mean motion: 14.77385090 rev/day Decay rate: 2.151e-05 rev/day^2 Epoch rev: 00594 Checksum: 243
Satellite: FO-69 Catalog number: 37227 Epoch time: 11348.45842189 Element set: 0049 Inclination: 071.9698 deg RA of node: 001.7270 deg Eccentricity: 0.0018505 Arg of perigee: 302.4603 deg Mean anomaly: 057.4753 deg Mean motion: 14.76846348 rev/day Decay rate: 1.165e-05 rev/day^2 Epoch rev: 00867 Checksum: 326
Satellite: NANOSALD Catalog number: 37361 Epoch time: 11242.25215765 Element set: 0351 Inclination: 071.9735 deg RA of node: 221.4469 deg Eccentricity: 0.0025730 Arg of perigee: 245.3422 deg Mean anomaly: 114.7284 deg Mean motion: 15.22200108 rev/day Decay rate: 1.80112e-03 rev/day^2 Epoch rev: 03331 Checksum: 248
Satellite: FO-70 Catalog number: 37380 Epoch time: 11348.43322615 Element set: 0053 Inclination: 071.9733 deg RA of node: 002.1098 deg Eccentricity: 0.0019099 Arg of perigee: 299.9958 deg Mean anomaly: 059.9308 deg Mean motion: 14.76604111 rev/day Decay rate: 1.135e-05 rev/day^2 Epoch rev: 00856 Checksum: 311
/EX SB KEPS @ AMSAT $ORB11349.W Orbital Elements 11349.WEATHER
HR AMSAT ORBITAL ELEMENTS FOR WEATHER SATELLITES FROM WA5QGD FORT WORTH,TX December 15, 2011 Send Subscribe/unsubscribe to KEPS at http://www.amsat.org/mailman/listinfo/keps BID: ORB11349.W TO ALL RADIO AMATEURS BT
Satellite: NOAA-10 Catalog number: 16969 Epoch time: 11348.70019500 Element set: 0744 Inclination: 098.6016 deg RA of node: 015.8730 deg Eccentricity: 0.0013151 Arg of perigee: 059.5493 deg Mean anomaly: 300.6974 deg Mean motion: 14.27511857 rev/day Decay rate: 1.65e-06 rev/day^2 Epoch rev: 31340 Checksum: 289
